Weather History for Big Piney, WY

Change the Weather History Date:

Wednesday, January 9, 2013

  Actual Average Record
Temperature  
Mean Temperature 10 °F 11 °F  
Max Temperature 22 °F 26 °F 40 °F (1996)
Min Temperature -3 °F -4 °F -27 °F (1989)
Degree Days  
Heating Degree Days 55 54  
Month to date heating degree days 549 486  
Since 1 July heating degree days 4271 4925  
Cooling Degree Days 0 0  
Month to date cooling degree days 0 0  
Year to date cooling degree days 0 0  
Moisture  
Dew Point 6 °F    
Average Humidity 88    
Maximum Humidity 96    
Minimum Humidity 80    
Precipitation  
Precipitation 0.00 in 0.01 in 0.13 in (2005)
Month to date precipitation 0.00 0.09  
Year to date precipitation 0.00 0.09  
Sea Level Pressure  
Sea Level Pressure 30.29 in    
Wind  
Wind Speed 3 mph (ENE)    
Max Wind Speed 10 mph    
Max Gust Speed 12 mph    
Visibility 5 miles    
Events Fog    
T = Trace of Precipitation, MM = Missing Value Source: NWS Daily Summary

Daily Weather History Graph

Daily Weather History Graph

Search for Another Location

Airport:

Trip Planner

Search our weather history database for the weather conditions in past years. The results will help you decide how hot, cold, wet, or windy it might be!

Date:

Astronomy

Jan. 09, 2013 Rise Set
Actual Time 7:49 AM MST 5:06 PM MST
Civil Twilight 7:18 AM MST 5:37 PM MST
Nautical Twilight 6:43 AM MST 6:12 PM MST
Astronomical Twilight 6:09 AM MST 6:46 PM MST
Moon 5:32 AM MST (1/9) 3:11 PM MST (1/9)
Length of Visible Light 10h 19m
Length of Day
9h 16m
Waning Crescent, 6% of the Moon is Illuminated
Jan 9
Waning Crescent
Jan 11
New
Jan 18
First Quarter
Jan 26
Full
Feb 3
Last Quarter

Hourly Weather History & Observations

Time (MST) Temp. Windchill Dew Point Humidity Pressure Visibility Wind Dir Wind Speed Gust Speed Precip Events Conditions
12:53 AM 3.9 °F -3.4 °F -0.0 °F 84% 30.48 in 10.0 mi East 3.5 mph - N/A   Scattered Clouds
1:53 AM 6.1 °F -2.8 °F 1.9 °F 83% 30.47 in 10.0 mi East 4.6 mph - N/A   Scattered Clouds
2:53 AM 5.0 °F - 1.9 °F 87% 30.48 in 4.0 mi Calm Calm - N/A   Clear
3:32 AM 3.2 °F -6.2 °F 1.4 °F 92% 30.34 in 5.0 mi NNE 4.6 mph - N/A   Scattered Clouds
3:48 AM 3.2 °F - 1.4 °F 92% 30.35 in 1.5 mi Calm Calm - N/A   Scattered Clouds
3:51 AM 5.0 °F - 3.2 °F 92% 30.35 in 0.8 mi Calm Calm - N/A   Mist
3:53 AM 5.0 °F -2.1 °F 3.0 °F 92% 30.49 in 0.8 mi ENE 3.5 mph - N/A   Mist
4:38 AM 1.4 °F -8.3 °F -2.2 °F 85% 30.34 in 2.0 mi NNW 4.6 mph - N/A   Mostly Cloudy
4:45 AM 1.4 °F - -2.2 °F 85% 30.33 in 10.0 mi Calm Calm - N/A   Mostly Cloudy
4:53 AM -0.0 °F -13.0 °F -4.0 °F 83% 30.51 in 10.0 mi NNW 6.9 mph - N/A   Scattered Clouds
5:42 AM -0.4 °F -8.3 °F -4.0 °F 85% 30.32 in 1.8 mi East 3.5 mph - N/A   Clear
5:53 AM -2.9 °F -11.2 °F -6.0 °F 87% 30.55 in 1.2 mi ENE 3.5 mph - N/A   Clear
5:59 AM -2.2 °F - -5.8 °F 85% 30.32 in 3.0 mi Calm Calm - N/A   Clear
6:11 AM -2.2 °F - -5.8 °F 85% 30.31 in 2.5 mi Calm Calm - N/A   Scattered Clouds
6:14 AM -2.2 °F - -5.8 °F 85% 30.31 in 1.5 mi Calm Calm - N/A   Mostly Cloudy
6:31 AM -2.2 °F -10.4 °F -5.8 °F 85% 30.31 in 0.2 mi ESE 3.5 mph - N/A Fog Light Freezing Fog
6:53 AM -0.9 °F -12.7 °F -4.0 °F 87% 30.51 in 0.2 mi East 5.8 mph - N/A Fog Light Freezing Fog
7:53 AM -0.0 °F - -2.9 °F 88% 30.55 in 0.2 mi Calm Calm - N/A Fog Light Freezing Fog
8:35 AM 1.4 °F -8.3 °F -2.2 °F 85% 30.30 in 2.0 mi ENE 4.6 mph - N/A   Mostly Cloudy
8:42 AM 3.2 °F -7.8 °F -0.4 °F 85% 30.30 in 10.0 mi ENE 5.8 mph - N/A   Scattered Clouds
8:53 AM 3.9 °F -5.3 °F -0.0 °F 84% 30.55 in 10.0 mi ENE 4.6 mph - N/A   Partly Cloudy
9:53 AM 7.0 °F 0.1 °F 3.9 °F 87% 30.54 in 10.0 mi SE 3.5 mph - N/A   Clear
10:19 AM 8.6 °F - 6.8 °F 92% 30.28 in 7.0 mi Calm Calm - N/A   Scattered Clouds
10:34 AM 10.4 °F - 8.6 °F 92% 30.27 in 2.5 mi Calm Calm - N/A   Mostly Cloudy
10:46 AM 12.2 °F - 10.4 °F 92% 30.27 in 7.0 mi Calm Calm - N/A   Scattered Clouds
10:53 AM 12.2 °F - 10.4 °F 92% 30.26 in 9.0 mi Calm Calm - N/A   Partly Cloudy
11:53 AM 15.1 °F - 12.0 °F 88% 30.42 in 10.0 mi Calm Calm - N/A   Clear
12:28 PM 15.8 °F - 12.2 °F 86% 30.21 in 4.0 mi Calm Calm - N/A   Scattered Clouds
12:53 PM 17.1 °F - 14.0 °F 88% 30.40 in 10.0 mi Calm Calm - N/A   Scattered Clouds
1:23 PM 19.4 °F - 15.8 °F 86% 30.18 in 10.0 mi Calm Calm - N/A   Mostly Cloudy
1:53 PM 19.9 °F - 16.0 °F 85% 30.36 in 10.0 mi Calm Calm - N/A   Overcast
2:41 PM 21.2 °F - 17.6 °F 86% 30.16 in 10.0 mi Calm Calm - N/A   Scattered Clouds
2:53 PM 19.9 °F 12.1 °F 17.1 °F 89% 30.34 in 10.0 mi SSE 5.8 mph - N/A   Clear
3:00 PM 19.4 °F 12.8 °F 15.8 °F 86% 30.16 in 2.5 mi SE 4.6 mph - N/A   Scattered Clouds
3:05 PM 19.4 °F 11.5 °F 15.8 °F 86% 30.15 in 1.0 mi SE 5.8 mph - N/A   Mist
3:13 PM 19.4 °F 14.3 °F 17.6 °F 93% 30.15 in 0.5 mi SE 3.5 mph - N/A Fog Light Freezing Fog
3:53 PM 19.9 °F 13.4 °F 17.1 °F 89% 30.32 in 0.5 mi ESE 4.6 mph - N/A Fog Light Freezing Fog
4:17 PM 19.4 °F 12.8 °F 15.8 °F 86% 30.13 in 2.0 mi NE 4.6 mph - N/A   Mostly Cloudy
4:25 PM 19.4 °F 12.8 °F 15.8 °F 86% 30.12 in 7.0 mi NE 4.6 mph - N/A   Mostly Cloudy
4:34 PM 19.4 °F 11.5 °F 15.8 °F 86% 30.12 in 10.0 mi NNE 5.8 mph - N/A   Scattered Clouds
4:53 PM 18.0 °F 9.8 °F 15.1 °F 88% 30.33 in 10.0 mi NNE 5.8 mph - N/A   Clear
5:53 PM 12.9 °F - 10.0 °F 88% 30.35 in 10.0 mi Calm Calm - N/A   Clear
6:28 PM 14.0 °F 8.2 °F 12.2 °F 93% 30.06 in 1.8 mi WSW 3.5 mph - N/A   Partly Cloudy
6:32 PM 12.2 °F 6.1 °F 12.2 °F 100% 30.06 in 0.8 mi West 3.5 mph - N/A   Mist
6:53 PM 8.1 °F -0.5 °F 6.1 °F 92% 30.32 in 0.2 mi WNW 4.6 mph - N/A Fog Light Freezing Fog
7:37 PM 8.6 °F 2.0 °F 6.8 °F 92% 30.03 in 3.0 mi North 3.5 mph - N/A   Overcast
7:53 PM 8.1 °F -0.5 °F 6.1 °F 92% 30.30 in 5.0 mi North 4.6 mph - N/A   Mostly Cloudy
8:07 PM 8.6 °F -2.6 °F 6.8 °F 92% 30.02 in 10.0 mi NNW 6.9 mph - N/A   Scattered Clouds
8:50 PM 5.0 °F -6.9 °F 1.4 °F 85% 30.01 in 3.0 mi East 6.9 mph - N/A   Mostly Cloudy
8:53 PM 5.0 °F -4.1 °F 1.9 °F 87% 30.26 in 6.0 mi East 4.6 mph - N/A   Mostly Cloudy
9:08 PM 5.0 °F - 1.4 °F 85% 30.00 in 0.8 mi Calm Calm - N/A   Mist
9:53 PM 8.1 °F - 6.1 °F 92% 30.22 in 0.2 mi Calm Calm - N/A Fog Light Freezing Fog
10:53 PM 9.0 °F 2.4 °F 5.0 °F 84% 30.16 in 0.5 mi ENE 3.5 mph - N/A Fog Light Freezing Fog
11:53 PM 8.1 °F 1.4 °F 5.0 °F 87% 30.10 in 0.2 mi East 3.5 mph - N/A Fog Light Freezing Fog